Regional Weather Roundup
Issued by NWS

Home | Current Version | Previous Version | Graphics & Text | Print | Product List | Glossary Off
Versions: 1 2 3 4 5 6 7 8 9 10 11 12 13 14 15 16 17 18 19 20 21 22 23 24 25 26 27 28 29 30 31 32 33 34 35 36 37 38 39 40 41 42 43 44 45 46 47 48 49 50

000
ASUS43 KLSX 011059
RWRMO

WEATHER SUMMARY FOR MISSOURI
NATIONAL WEATHER SERVICE SPRINGFIELD MO
600 AM CDT WED OCT 01 2014

NOTE: "FAIR" INDICATES FEW OR NO CLOUDS BELOW 12,000 FEET WITH NO
       SIGNIFICANT WEATHER AND/OR OBSTRUCTIONS TO VISIBILITY.
       CURRENT SKY AND/OR WEATHER CONDITIONS ARE NOT AVAILABLE FOR
       CHILLICOTHE AND FARMINGTON.

MOZ001>031-035>038-043-044-053-054-011200-
...NORTHERN AND WESTERN MISSOURI...

CITY           SKY/WX    TMP DP  RH WIND       PRES   REMARKS
KANSAS CTY INT TSTM      65  64  97 N7        29.79R FOG
KANSAS C DTWN  LGT RAIN  71  60  68 NW12G22   29.76R
LEE`S SUMMIT   MOCLDY    67  58  72 S9        29.76S
ST JOSEPH      LGT RAIN  65  64  97 SE12      29.75F
CHILLICOTHE      N/A     66  58  75 SE3       29.79R
KIRKSVILLE     CLOUDY    60  32  34 SE9       29.84S HAZE

$$
MOZ066>068-077>081-088>096-101>105-011200-
...SOUTHWEST MISSOURI...

CITY           SKY/WX    TMP DP  RH WIND       PRES   REMARKS
SPRINGFIELD    CLEAR     65  56  72 S13       29.83S
JOPLIN         PTCLDY    71  59  65 S15       29.79F

$$
MOZ032>034-039>042-045>050-055>058-069>072-011200-
...CENTRAL MISSOURI...

CITY           SKY/WX    TMP DP  RH WIND       PRES   REMARKS
COLUMBIA       MOCLDY    61  55  81 SE8       29.85S
JEFFERSON CITY MOCLDY    61  55  81 SE6       29.85R
ROLLA          CLEAR     62  53  72 S9        29.86S
SEDALIA        PTCLDY    67  55  65 S10       29.81S
OSAGE BEACH    MOCLDY    63  52  67 SE5       29.84S

$$
MOZ051-052-059>065-011200-
...EAST CENTRAL MISSOURI...

CITY           SKY/WX    TMP DP  RH WIND       PRES   REMARKS
ST LOUIS INTL  CLEAR     63  59  87 E7        29.91S
SPIRIT OF STL  CLEAR    N/A N/A N/A E3        29.88F
ST CHARLES     CLEAR     59  57  93 E8        29.90S

$$
MOZ072>076-082>087-097>100-106>115-011200-
...SOUTH CENTRAL AND SOUTHEAST MISSOURI...

CITY           SKY/WX    TMP DP  RH WIND       PRES   REMARKS
CAPE GIRARDEAU CLEAR     55  53  93 CALM      29.91R
FARMINGTON     CLEAR     54  52  94 CALM      29.93R
POPLAR BLUFF   CLEAR     57  54  89 CALM      29.89S
WEST PLAINS    CLEAR     56  52  86 CALM      29.90F

$$



USA.gov is the U.S. government's official web portal to all federal, state and local government web resources and services.